Powrót do katalogu

ARIANE 1 DEB

AktywnyHEO
NORAD 25098·DEBRIS·🇫🇷 France

Wystrzelony Dec 24, 1979 z Guiana Space Centre

Loading…

Następne Przeloty (najbliższe 24 godziny)

TLE

ŚwieżeSource: Space-Track

Epoka: Sep 14, 2026, 02:44 UTC

1 25098U 79104D   26257.11455812  .00000911  00000-0  22689-2 0  9994
2 25098  17.5138 221.0917 5351774 141.2055 273.0989  4.79412456447930

Śledź ARIANE 1 DEB w czasie rzeczywistym z AllMySat

Download on the App Store